This demonstration page uses our WeatherBlox Daily Observations layout. Learn more.

Left ArrowRight Arrow

34.16533, -84.80231

Hourly Observations for March 4, 2017

Temp ( °F °C ) Dew Point ( °F °C ) Humidity (%) Winds ( mph kmh ) Pressure ( in mb ) Visibility ( mi km ) Precip ( " mm )
12:53 am 00:53 Clear 30 -1.1 22 -5.6 72 72 Calm 30.56 1035 10 16 0.00 0.00
1:53 am 01:53 Clear 29 -1.7 21 -6.1 72 72 Calm 30.56 1035 10 16 0.00 0.00
2:53 am 02:53 Clear 29 -1.7 21 -6.1 72 72 Calm 30.54 1034 10 16 0.00 0.00
3:53 am 03:53 Clear 28 -2.2 22 -5.6 78 78 Calm 30.55 1035 10 16 0.00 0.00
4:53 am 04:53 Clear 28 -2.2 22 -5.6 78 78 Calm 30.57 1035 10 16 0.00 0.00
5:53 am 05:53 Clear 28 -2.2 22 -5.6 78 78 Calm 30.59 1036 10 16 0.00 0.00
6:53 am 06:53 Clear 27 -2.8 21 -6.1 78 78 Calm 30.61 1037 10 16 0.00 0.00
7:53 am 07:53 Sunny 30 -1.1 23 -5 75 75 Calm 30.64 1038 10 16 0.00 0.00
8:53 am 08:53 Sunny 36 2.2 23 -5 59 59 Calm 30.65 1038 10 16 0.00 0.00
9:53 am 09:53 Sunny 43 6.1 24 -4.4 47 47 VRB 5 7 30.65 1038 10 16 0.00 0.00
10:53 am 10:53 Sunny 49 9.4 19 -7.2 31 31 VRB 3 6 30.63 1037 10 16 0.00 0.00
11:53 am 11:53 Sunny 53 11.7 19 -7.2 26 26 VRB 3 6 30.61 1037 10 16 0.00 0.00
12:53 pm 12:53 Sunny 56 13.3 19 -7.2 24 24 VRB 5 7 30.58 1035 10 16 0.00 0.00
1:53 pm 13:53 Sunny 60 15.6 20 -6.7 21 21 N 6 9 30.52 1034 10 16 0.00 0.00
2:53 pm 14:53 Sunny 60 15.6 19 -7.2 20 20 VRB 5 7 30.49 1033 10 16 0.00 0.00
3:53 pm 15:53 Sunny 63 17.2 20 -6.7 19 19 Calm 30.46 1032 10 16 0.00 0.00
4:53 pm 16:53 Sunny 63 17.2 18 -7.8 17 17 Calm 30.46 1031 10 16 0.00 0.00
5:53 pm 17:53 Sunny 60 15.6 17 -8.3 19 19 Calm 30.45 1031 10 16 0.00 0.00
6:53 pm 18:53 Clear 48 8.9 28 -2.2 46 46 Calm 30.46 1032 10 16 0.00 0.00
7:53 pm 19:53 Clear 43 6.1 27 -2.8 53 53 Calm 30.48 1032 10 16 0.00 0.00
8:53 pm 20:53 Clear 43 6.1 27 -2.8 53 53 Calm 30.50 1033 10 16 0.00 0.00
9:53 pm 21:53 Clear 39 3.9 28 -2.2 65 65 Calm 30.51 1033 10 16 0.00 0.00
10:53 pm 22:53 Clear 37 2.8 28 -2.2 70 70 Calm 30.49 1033 10 16 0.00 0.00
11:53 pm 23:53 Clear 36 2.2 28 -2.2 73 73 Calm 30.47 1032 10 16 0.00 0.00

Powered by AerisWeather